Location: Unspecified
(49.2170°N, 0.0000°E)
Time: 17:21:15
(UTC+00:00)

Envisat - Pass Details

Date: 04 December 2020
Orbit: 764 x 766 km, 98.1° (Epoch: 20 January)

Event Time Altitude Azimuth Distance (km) Brightness Sun altitude
Rises 06:44:58 0° 9° (N) 3,247 6.1 -8.3°
Reaches altitude 10° 06:47:22 10° 3° (N) 2,316 5.3 -8.0°
Maximum altitude 06:52:11 44° 292° (WNW) 1,055 3.3 -7.3°
Drops below altitude 10° 06:56:58 10° 222° (SW) 2,299 5.3 -6.6°
Sets 06:59:20 0° 216° (SW) 3,221 6.1 -6.2°
